• In Germany
  • List of Countries
  • For 7 days
  • Water Temperature
  • Satellite Maps
  • Weather Map
  • Weather Widgets
  • user-avatar
    Login

    Hourly Weather Canberra

    Today, 27 June, Tuesday

    Time Temperature Precipitation Wind Pressure Humidity
    00:00 +2°C° 0 mm 1 mps 714 mmHg 94%
    01:00 +1°C° 0 mm 1 mps 714 mmHg 94%
    02:00 +1°C° 0 mm 1 mps 714 mmHg 95%
    03:00 +1°C° 0 mm 1 mps 714 mmHg 96%
    04:00 0°C° 0 mm 1 mps 714 mmHg 97%
    05:00 0°C° 0 mm 1 mps 714 mmHg 97%
    06:00 0°C° 0 mm 1 mps 714 mmHg 97%
    07:00 -2°C° 0 mm 0 mps 714 mmHg 97%
    08:00 +3°C° 0 mm 1 mps 714 mmHg 89%
    09:00 +6°C° 0 mm 1 mps 715 mmHg 80%
    10:00 +10°C° 0 mm 1 mps 716 mmHg 70%
    11:00 +11°C° 0 mm 1 mps 715 mmHg 64%
    12:00 +12°C° 0 mm 1 mps 715 mmHg 59%
    13:00 +13°C° 0 mm 1 mps 715 mmHg 53%
    14:00 +12°C° 0 mm 1 mps 714 mmHg 58%
    15:00 +11°C° 0 mm 1 mps 714 mmHg 63%
    16:00 +10°C° 0 mm 1 mps 713 mmHg 68%
    17:00 +9°C° 0 mm 1 mps 713 mmHg 75%
    18:00 +6°C° 0 mm 0 mps 713 mmHg 81%
    19:00 +5°C° 0 mm 0 mps 713 mmHg 88%
    20:00 +6°C° 0 mm 1 mps 713 mmHg 89%
    21:00 +6°C° 0 mm 1 mps 713 mmHg 91%
    22:00 +5°C° 0 mm 1 mps 713 mmHg 95%
    23:00 +5°C° 0 mm 1 mps 713 mmHg 96%

    Tomorrow, 28 June, Wednesday

    Time Temperature Precipitation Wind Pressure Humidity
    00:00 +5°C° 0 mm 1 mps 713 mmHg 96%
    01:00 +5°C° 0 mm 1 mps 713 mmHg 97%
    02:00 +3°C° 0 mm 0 mps 712 mmHg 97%
    03:00 +3°C° 0 mm 0 mps 712 mmHg 98%
    04:00 +2°C° 0 mm 0 mps 712 mmHg 98%
    05:00 +2°C° 0 mm 0 mps 712 mmHg 98%
    06:00 +2°C° 0 mm 0 mps 712 mmHg 98%
    07:00 +2°C° 0 mm 0 mps 712 mmHg 97%
    08:00 +4°C° 0 mm 0 mps 712 mmHg 89%
    09:00 +7°C° 0 mm 1 mps 712 mmHg 81%
    10:00 +10°C° 0 mm 1 mps 713 mmHg 74%
    11:00 +11°C° 0 mm 1 mps 712 mmHg 66%
    12:00 +12°C° 0 mm 1 mps 712 mmHg 59%
    13:00 +13°C° 0 mm 2 mps 712 mmHg 52%
    14:00 +13°C° 0 mm 2 mps 711 mmHg 54%
    15:00 +12°C° 0 mm 2 mps 711 mmHg 57%
    16:00 +12°C° 0 mm 2 mps 711 mmHg 59%
    17:00 +8°C° 0 mm 2 mps 711 mmHg 70%
    18:00 +6°C° 0 mm 2 mps 711 mmHg 80%
    19:00 +5°C° 0 mm 1 mps 711 mmHg 91%
    20:00 +4°C° 0 mm 1 mps 711 mmHg 92%
    21:00 +4°C° 0 mm 1 mps 711 mmHg 93%
    22:00 +4°C° 0 mm 1 mps 712 mmHg 95%
    23:00 +3°C° 0 mm 1 mps 711 mmHg 95%

    Day after tomorrow, 29 June, Thursday

    Time Temperature Precipitation Wind Pressure Humidity
    00:00 +3°C° 0 mm 1 mps 711 mmHg 95%
    01:00 +2°C° 0 mm 1 mps 711 mmHg 95%
    02:00 +2°C° 0 mm 1 mps 711 mmHg 94%
    03:00 +2°C° 0 mm 1 mps 711 mmHg 94%
    04:00 +2°C° 0 mm 1 mps 711 mmHg 93%
    05:00 +2°C° 0 mm 1 mps 711 mmHg 93%
    06:00 +2°C° 0 mm 1 mps 711 mmHg 92%
    07:00 +1°C° 0 mm 1 mps 711 mmHg 92%
    08:00 +4°C° 0 mm 1 mps 711 mmHg 82%
    09:00 +7°C° 0 mm 1 mps 712 mmHg 72%
    10:00 +9°C° 0 mm 1 mps 712 mmHg 62%
    11:00 +10°C° 0 mm 2 mps 712 mmHg 57%
    12:00 +12°C° 0 mm 2 mps 711 mmHg 51%
    13:00 +12°C° 0 mm 3 mps 711 mmHg 46%
    14:00 +12°C° 0 mm 3 mps 710 mmHg 50%
    15:00 +11°C° 0 mm 3 mps 710 mmHg 53%
    16:00 +10°C° 0 mm 3 mps 710 mmHg 57%
    17:00 +8°C° 0 mm 3 mps 711 mmHg 66%
    18:00 +6°C° 0 mm 2 mps 711 mmHg 74%
    19:00 +5°C° 0 mm 2 mps 711 mmHg 83%
    20:00 +4°C° 0 mm 2 mps 712 mmHg 86%
    21:00 +3°C° 0 mm 2 mps 712 mmHg 89%
    22:00 +3°C° 0 mm 2 mps 712 mmHg 92%
    23:00 +3°C° 0 mm 2 mps 712 mmHg 93%

    30 June, Friday

    Time Temperature Precipitation Wind Pressure Humidity
    00:00 +3°C° 0 mm 2 mps 712 mmHg 94%
    01:00 +2°C° 0 mm 2 mps 712 mmHg 95%
    02:00 +3°C° 0 mm 1 mps 712 mmHg 96%
    03:00 +3°C° 0 mm 1 mps 713 mmHg 96%
    04:00 +2°C° 0 mm 1 mps 713 mmHg 96%
    05:00 +1°C° 0 mm 1 mps 713 mmHg 95%
    06:00 0°C° 0 mm 1 mps 714 mmHg 95%
    07:00 -1°C° 0 mm 1 mps 714 mmHg 94%
    08:00 +1°C° 0 mm 2 mps 715 mmHg 81%
    09:00 +3°C° 0 mm 2 mps 716 mmHg 67%
    10:00 +6°C° 0 mm 2 mps 717 mmHg 54%
    11:00 +7°C° 0 mm 2 mps 717 mmHg 49%
    12:00 +8°C° 0 mm 2 mps 716 mmHg 43%
    13:00 +9°C° 0 mm 2 mps 716 mmHg 38%
    14:00 +9°C° 0 mm 2 mps 716 mmHg 41%
    15:00 +9°C° 0 mm 2 mps 716 mmHg 44%
    16:00 +9°C° 0 mm 1 mps 716 mmHg 47%
    17:00 +6°C° 0 mm 1 mps 717 mmHg 58%
    18:00 +3°C° 0 mm 1 mps 717 mmHg 69%
    19:00 +1°C° 0 mm 1 mps 717 mmHg 80%
    20:00 0°C° 0 mm 1 mps 717 mmHg 81%
    21:00 0°C° 0 mm 1 mps 717 mmHg 81%
    22:00 0°C° 0 mm 1 mps 718 mmHg 82%
    23:00 0°C° 0 mm 1 mps 718 mmHg 84%

    1 July, Saturday

    Time Temperature Precipitation Wind Pressure Humidity
    00:00 0°C° 0 mm 1 mps 718 mmHg 86%
    01:00 -1°C° 0 mm 1 mps 717 mmHg 87%
    02:00 -1°C° 0 mm 1 mps 717 mmHg 88%
    03:00 -1°C° 0 mm 1 mps 717 mmHg 89%
    04:00 -2°C° 0 mm 1 mps 717 mmHg 90%
    05:00 -2°C° 0 mm 1 mps 717 mmHg 91%
    06:00 -3°C° 0 mm 1 mps 717 mmHg 92%
    07:00 -3°C° 0 mm 1 mps 717 mmHg 92%
    08:00 +1°C° 0 mm 1 mps 718 mmHg 77%
    09:00 +4°C° 0 mm 0 mps 719 mmHg 61%
    10:00 +8°C° 0 mm 0 mps 719 mmHg 45%
    11:00 +10°C° 0 mm 1 mps 719 mmHg 41%
    12:00 +11°C° 0 mm 1 mps 718 mmHg 36%
    13:00 +12°C° 0 mm 1 mps 718 mmHg 32%
    14:00 +12°C° 0 mm 1 mps 717 mmHg 36%
    15:00 +11°C° 0 mm 1 mps 717 mmHg 41%
    16:00 +10°C° 0 mm 1 mps 716 mmHg 45%
    17:00 +6°C° 0 mm 1 mps 716 mmHg 59%
    18:00 +3°C° 0 mm 1 mps 715 mmHg 73%
    19:00 -1°C° 0 mm 1 mps 715 mmHg 87%
    20:00 -2°C° 0 mm 1 mps 715 mmHg 87%
    21:00 -3°C° 0 mm 0 mps 715 mmHg 88%
    22:00 -4°C° 0 mm 0 mps 715 mmHg 88%
    23:00 -4°C° 0 mm 0 mps 715 mmHg 87%

    2 July, Sunday

    Time Temperature Precipitation Wind Pressure Humidity
    00:00 -3°C° 0 mm 1 mps 715 mmHg 86%
    01:00 -2°C° 0 mm 1 mps 714 mmHg 85%
    02:00 -2°C° 0 mm 1 mps 714 mmHg 84%
    03:00 -2°C° 0 mm 1 mps 714 mmHg 82%
    04:00 -2°C° 0 mm 1 mps 714 mmHg 81%
    05:00 -2°C° 0 mm 1 mps 714 mmHg 80%
    06:00 -2°C° 0 mm 1 mps 714 mmHg 79%
    07:00 -2°C° 0 mm 1 mps 714 mmHg 78%
    08:00 +2°C° 0 mm 1 mps 715 mmHg 65%
    09:00 +5°C° 0 mm 2 mps 715 mmHg 52%
    10:00 +8°C° 0 mm 2 mps 715 mmHg 39%
    11:00 +10°C° 0 mm 2 mps 714 mmHg 37%
    12:00 +11°C° 0 mm 3 mps 714 mmHg 36%
    13:00 +12°C° 0 mm 4 mps 713 mmHg 34%
    14:00 +11°C° 0 mm 3 mps 712 mmHg 40%
    15:00 +11°C° 0 mm 3 mps 712 mmHg 46%
    16:00 +10°C° 0 mm 2 mps 711 mmHg 53%
    17:00 +8°C° 0 mm 2 mps 711 mmHg 63%
    18:00 +6°C° 0 mm 2 mps 711 mmHg 74%
    19:00 +5°C° 0 mm 1 mps 711 mmHg 85%
    20:00 +5°C° 0.1 mm 2 mps 710 mmHg 85%
    21:00 +6°C° 0.1 mm 2 mps 710 mmHg 86%
    22:00 +7°C° 0.1 mm 2 mps 710 mmHg 87%
    23:00 +7°C° 0.2 mm 2 mps 709 mmHg 88%
    Show more